Location: Winthrop
(48.4780°N, 120.1850°W)
Time: 22:42:19
(UTC-07:00)

S-56A Canister/Altair - Pass Details

Date: 08 June 2023
Orbit: 640 x 2489 km, 38.9° (Epoch: 29 September)

Event Time Altitude Azimuth Distance (km) Brightness Sun altitude
Rises 02:08:26 0° 279° (W) 6,014 12.0 -17.0°
Reaches altitude 10° 02:12:43 10° 272° (W) 5,104 11.5 -16.8°
Maximum altitude 02:25:27 36° 214° (SW) 3,413 10.3 -16.1°
Drops below altitude 10° 02:37:05 10° 155° (SSE) 4,637 11.1 -15.4°
Sets 02:40:46 0° 147° (SSE) 5,419 11.5 -15.2°
